Location: Finkenbach
(49.5340°N, 8.9188°E)
Time: 20:31:51
(UTC+00:00)

Cosmos 1763 Rocket - Pass Details

Date: 17 June 2025
Orbit: 729 x 774 km, 74.0° (Epoch: 16 July)

Event Time Altitude Azimuth Distance (km) Brightness Sun altitude
Rises 21:37:29 0° 337° (NNW) 3,211 8.8 -13.2°
Reaches altitude 10° 21:39:53 10° 339° (NNW) 2,276 7.4 -13.4°
Maximum altitude 21:45:02 75° 65° (ENE) 770 3.5 -13.7°
Enters shadow 21:48:28 21° 149° (SSE) 1,620 4.6 -13.9°
